Terminal Aerodrome Forecast
Issued by NWS Wilmington, NC

Home | Current Version | Previous Version | Text Only | Print | Product List | Glossary On
Versions: 1 2 3 4 5 6 7 8 9 10 11 12 13 14 15 16 17
000
FTUS42 KILM 111100
TAFLBT
TAF
KLBT 111120Z 1112/1212 VRB03KT 4SM BR BKN003
     FM111300 VRB05KT P6SM SCT050 BKN100
     FM111800 10005KT P6SM VCTS SCT050CB
     FM120100 VRB04KT P6SM SCT050 SCT250=

USA.gov is the U.S. government's official web portal to all federal, state and local government web resources and services.